This is the latest recevied weather packets stored in our database for station/object M0JUI-1. If no packets are shown the sender has not sent any weather packets the latest 10 day(s).
| Time | Temp. | Humidity | Pressure | Rain* | Wind** | Luminosity | Snow |
|---|---|---|---|---|---|---|---|
| 1788104457 | 18.89° C | 1% | 1004.4 hPa | 0 mm | - | 111 W/m² | - |
| 1788104157 | 18.89° C | 1% | 1004.5 hPa | 0 mm | - | 100 W/m² | - |
| 1788103844 | 18.89° C | 1% | 1004.6 hPa | 0 mm | - | 105 W/m² | - |
| 1788103544 | 18.89° C | 1% | 1004.7 hPa | 0 mm | - | 51 W/m² | - |
| 1788103245 | 18.89° C | 1% | 1004.8 hPa | 0 mm | - | 110 W/m² | - |
| 1788102944 | 18.89° C | 1% | 1004.7 hPa | 0 mm | - | 167 W/m² | - |
| 1788102644 | 18.33° C | 1% | 1004.8 hPa | 1.52 mm | - | 197 W/m² | - |
| 1788102344 | 18.33° C | 1% | 1004.9 hPa | 1.78 mm | - | 163 W/m² | - |
| 1788102045 | 18.33° C | 1% | 1005.2 hPa | 1.78 mm | - | 114 W/m² | - |
| 1788101744 | 18.33° C | 1% | 1005.1 hPa | 1.78 mm | - | 148 W/m² | - |
| 1788101444 | 18.33° C | 1% | 1005.2 hPa | 1.78 mm | - | 166 W/m² | - |
| 1788101144 | 18.33° C | 1% | 1005.5 hPa | 1.78 mm | - | 176 W/m² | - |
| 1788100844 | 18.33° C | 1% | 1005.7 hPa | 1.78 mm | - | 187 W/m² | - |
| 1788100544 | 17.78° C | 1% | 1005.6 hPa | 1.78 mm | - | 193 W/m² | - |
| 1788100244 | 17.78° C | 1% | 1005.6 hPa | 1.78 mm | - | 193 W/m² | - |
| 1788099944 | 17.78° C | 1% | 1005.8 hPa | 1.78 mm | - | 124 W/m² | - |
| 1788099644 | 18.33° C | 1% | 1005.8 hPa | 1.78 mm | - | 95 W/m² | - |
| 1788099344 | 18.89° C | 99% | 1005.9 hPa | 1.78 mm | - | 97 W/m² | - |
| 1788099044 | 19.44° C | 99% | 1006 hPa | 0.25 mm | - | 60 W/m² | - |
| 1788098745 | 19.44° C | 99% | 1006.1 hPa | 0 mm | - | 74 W/m² | - |
| 1788098444 | 19.44° C | 99% | 1006.1 hPa | 0 mm | - | 139 W/m² | - |
| 1788098144 | 19.44° C | 99% | 1006.2 hPa | 0 mm | - | 158 W/m² | - |
| 1788097832 | 19.44° C | 99% | 1006.1 hPa | 0 mm | - | 93 W/m² | - |
| 1788097533 | 18.89° C | 99% | 1006.2 hPa | 0 mm | - | 94 W/m² | - |
| 1788097232 | 19.44° C | 99% | 1006.2 hPa | 0 mm | - | 146 W/m² | - |
* Rain latest hour (hover to see other rain measurements)
** Current wind speed in m/s (hover to see current wind gust speed)